User: anonymous   Login
Location: Feydey
(46.3431°N, 7.0106°E)
Time: 22:07:36
(UTC+00:00)
Language:

Cosmos 1603 - Orbit

View from above orbital plane
View from above orbital plane
View from above satellite
View from above satellite

Ground track
Ground track

The orbit data is extracted from the following two-line orbital elements,

1 15333U 84106A   21266.20347717  .00000222  00000-0  14094-3 0  9999
2 15333  71.0240  67.6425 0020003 348.0259  12.0385 14.14120217908657
Epoch (UTC): 23 September 2021 04:53:00
Eccentricity: 0.0020003
inclination: 71.0240°
perigee height: 831 km
apogee height: 860 km
right ascension of ascending node: 67.6425°
argument of perigee: 348.0259°
revolutions per day: 14.14120217
mean anomaly at epoch: 12.0385°
orbit number at epoch: 90865

The dashed part of the orbit path shows where the satellite is in the earth's shadow,  

DLR